Weather in Prosiane

Ukraine / Kharkiv Region     49°42′18″N   35°47′57″E
temp.,
°C
wind,
m/s
gust,
m/s
humid.,
%
clouds,
%
prec.,
mm/h
press.,
hPa
HPBL,
m
2 july, sat
sat200:00+16ne511650 0.0 1018338
03:00+11ne36730 0.0 1019121
06:00+11nne49732 0.0 1021338
09:00+15nne57510 0.0 1022859
12:00+19nne57450 0.0 10211231
15:00+22n67441 0.0 10201621
18:00+21n57510 0.0 10201659
21:00+16nnw47720 0.0 1020107
3 july, sun
sun300:00+14n35835 0.0 102084
03:00+13nnw34880 0.0 102065
06:00+13nnw37845 0.0 1020169
09:00+20nnw56595 0.0 1020590
12:00+24nnw45444 0.0 10191432
15:00+26nnw56434 0.0 10181781
18:00+25nnw45516 0.0 10181503
21:00+19nw467335 0.0 101886
4 july, mon
mon400:00+17nnw367493 0.0 101883
03:00+16nw37796 0.0 1018106
06:00+17nnw388211 0.0 1018184
09:00+21nnw357293 0.0 1018292
12:00+26nnw445420 0.0 10181191
15:00+29nnw454159 0.0 10172447
18:00+27n345373 0.0 1017863
21:00+21nnw3370100 0.0 101834
5 july, tue
tue500:00+20nne337648 0.0 101825
03:00+18n22820 0.0 101811
06:00+19ne22815 0.0 101963
09:00+25e22593 0.0 1019522
12:00+28ene24446 0.0 10182064
15:00+30nne223888 0.0 10172331
18:00+25se2458100 0.0 1018122
21:00+22ese46550 0.0 101873
6 july, wed
wed600:00+20ese33590 0.0 101936
03:00+18se34623 0.0 101862
06:00+18se33660 0.0 101961
09:00+25sse33480 0.0 1018424
12:00+29s43340 0.0 10181899
15:00+30s34300 0.0 10162312
18:00+30s24352 0.0 10161998
21:00+24sse22455 0.0 101512